This is the latest recevied weather packets stored in our database for station/object K5OBH. If no packets are shown the sender has not sent any weather packets the latest 10 day(s).
| Time | Temp. | Humidity | Pressure | Rain* | Wind** | Luminosity | Snow |
|---|---|---|---|---|---|---|---|
| 1777734185 | 17.78° C | 58% | 1020.5 hPa | 0 mm | - | 418 W/m² | - |
| 1777733881 | 17.22° C | 59% | 1020.7 hPa | 0 mm | - | 396 W/m² | - |
| 1777733578 | 16.67° C | 58% | 1020.8 hPa | 0 mm | - | 333 W/m² | - |
| 1777733274 | 16.67° C | 60% | 1020.7 hPa | 0 mm | - | 308 W/m² | - |
| 1777732971 | 16.67° C | 61% | 1020.6 hPa | 0 mm | - | 371 W/m² | - |
| 1777732667 | 16.11° C | 61% | 1020.6 hPa | 0 mm | - | 352 W/m² | - |
| 1777732364 | 16.11° C | 62% | 1020.8 hPa | 0 mm | - | 329 W/m² | - |
| 1777732062 | 15.56° C | 62% | 1020.9 hPa | 0 mm | - | 317 W/m² | - |
| 1777731759 | 15.56° C | 62% | 1020.8 hPa | 0 mm | - | 321 W/m² | - |
| 1777731456 | 15.56° C | 61% | 1020.8 hPa | 0 mm | - | 266 W/m² | - |
| 1777731154 | 15° C | 62% | 1021.1 hPa | 0 mm | - | 267 W/m² | - |
| 1777730852 | 15.56° C | 60% | 1021.1 hPa | 0 mm | - | 249 W/m² | - |
| 1777730549 | 15° C | 67% | 1020.9 hPa | 0 mm | - | 237 W/m² | - |
| 1777730244 | 15° C | 65% | 1020.9 hPa | 0 mm | - | 226 W/m² | - |
| 1777729942 | 14.44° C | 64% | 1020.9 hPa | 0 mm | - | 211 W/m² | - |
| 1777729637 | 14.44° C | 64% | 1020.9 hPa | 0 mm | - | 193 W/m² | - |
| 1777729335 | 13.89° C | 64% | 1020.7 hPa | 0 mm | - | 186 W/m² | - |
| 1777729031 | 14.44° C | 64% | 1020.8 hPa | 0 mm | - | 174 W/m² | - |
| 1777728728 | 13.89° C | 65% | 1020.6 hPa | 0 mm | - | 164 W/m² | - |
| 1777728424 | 13.89° C | 66% | 1020.8 hPa | 0 mm | - | 151 W/m² | - |
| 1777728122 | 13.33° C | 66% | 1020.7 hPa | 0 mm | - | 140 W/m² | - |
| 1777727819 | 13.33° C | 65% | 1020.8 hPa | 0 mm | - | 129 W/m² | - |
| 1777727516 | 12.78° C | 66% | 1020.9 hPa | 0 mm | - | 119 W/m² | - |
| 1777727213 | 12.78° C | 67% | 1021 hPa | 0 mm | - | 108 W/m² | - |
| 1777726911 | 12.78° C | 69% | 1020.6 hPa | 0 mm | - | 99 W/m² | - |
* Rain latest hour (hover to see other rain measurements)
** Current wind speed in m/s (hover to see current wind gust speed)